Monte Terminillo, Italy

10:45 AM CET on November 20, 2017 (GMT +0100)
Monte Terminillo

Weather History for LIRK - May, 2013

Change the Weather History Date:

Sunday, May 19, 2013

  Actual Average Record
Temperature  
Mean Temperature 42 °F -  
Max Temperature 47 °F 51 °F 69 °F (2015)
Min Temperature 37 °F 42 °F 32 °F (1998)
Degree Days  
Heating Degree Days 23    
Moisture  
Dew Point 42 °F    
Average Humidity 98    
Maximum Humidity 100    
Minimum Humidity 87    
Precipitation  
Precipitation 0.00 in 0.11 in - ()
Sea Level Pressure  
Sea Level Pressure 30.04 in    
Wind  
Wind Speed 14 mph ()    
Max Wind Speed 28 mph    
Max Gust Speed -    
Visibility 2.2 miles    
Events Fog , Rain    
Averages and records for this station are not official NWS values.
T = Trace of Precipitation, MM = Missing Value Source: Averaged Metar Reports

Daily Weather History Graph

Daily Weather History Graph

Search for Another Location

Airport or City:

Trip Planner

Search our weather history database for the weather conditions in past years. The results will help you decide how hot, cold, wet, or windy it might be!

Date:

Astronomy

May. 19, 2013 Rise Set
Actual Time 5:42 AM CEST 8:27 PM CEST
Civil Twilight 5:09 AM CEST 8:59 PM CEST
Nautical Twilight 4:28 AM CEST 9:41 PM CEST
Astronomical Twilight 3:41 AM CEST 10:28 PM CEST
Moon 2:06 PM CEST (5/19) 2:05 AM CEST (5/19)
Length of Visible Light 15h 50m
Length of Day
14h 44m
Waxing Gibbous, 62% of the Moon is Illuminated
May 19
Waxing Gibbous
May 25
Full
May 31
Last Quarter
Jun 8
New
Jun 16
First Quarter

Hourly Weather History & Observations

Time (CEST) Temp. Dew Point Humidity Pressure Visibility Wind Dir Wind Speed Gust Speed Precip Events Conditions
12:55 AM 46.4 °F 44.6 °F 93% 30.09 in - North - - N/A   Clear
1:55 AM 46.4 °F 44.6 °F 93% 30.09 in - North - - N/A   Clear
2:00 AM 47 °F 45 °F 91%  in 9 mi SSW 18.4 mph - -  
2:55 AM 46.4 °F 44.6 °F 93% 30.09 in - North - - N/A   Clear
5:55 AM 46.4 °F 46.4 °F 100% 29.98 in 0.0 mi North - - N/A Fog Fog
6:55 AM 44.6 °F 44.6 °F 100% 29.98 in 0.0 mi North - - N/A Fog Fog
7:55 AM 44.6 °F 44.6 °F 100% 29.98 in 0.0 mi North - - N/A Fog Fog
8:00 AM 45 °F 45 °F 100%  in 0 mi SSW 16.1 mph - -  
8:55 AM 44.6 °F 44.6 °F 100% 30.01 in 0.0 mi North - - N/A Fog Fog
10:55 AM 42.8 °F 42.8 °F 100% 30.01 in 0.0 mi North - - N/A Fog Fog
11:55 AM 41.0 °F 41.0 °F 100% 30.01 in 0.0 mi North - - N/A Fog Fog
12:55 PM 41.0 °F 41.0 °F 100% 30.04 in 0.0 mi North - - N/A Fog Fog
1:55 PM 41.0 °F 41.0 °F 100% 30.04 in - North - - N/A   Mostly Cloudy
2:00 PM 41 °F 41 °F 100%  in 12 mi West 18.4 mph - -  
2:55 PM 41.0 °F 39.2 °F 93% 30.04 in - North - - N/A   Scattered Clouds
3:55 PM 41.0 °F 39.2 °F 93% 30.04 in - North - - N/A   Scattered Clouds
4:55 PM 42.8 °F 39.2 °F 87% 30.06 in - North - - N/A   Scattered Clouds
5:55 PM 41.0 °F 41.0 °F 100% 30.06 in - North - - N/A   Scattered Clouds
6:55 PM 41.0 °F 41.0 °F 100% 30.06 in - North - - N/A   Partly Cloudy
7:55 PM 39.2 °F 39.2 °F 100% 30.06 in - North - - N/A   Mostly Cloudy
8:00 PM 40 °F 40 °F 100%  in 12 mi West 27.6 mph - -  
8:55 PM 39.2 °F 39.2 °F 100% 30.06 in 0.0 mi North - - N/A Fog Fog
9:55 PM 37.4 °F 37.4 °F 100% 30.06 in 0.0 mi North - - N/A Fog Fog
10:55 PM 37.4 °F 37.4 °F 100% 30.09 in 0.0 mi North - - N/A Fog Fog
11:55 PM 37.4 °F 37.4 °F 100% 30.09 in 0.0 mi North - - N/A Fog , Rain Light Rain